Terminal Aerodrome Forecast
Issued by NWS Green Bay, WI

Home | Current Version | Previous Version | Graphics & Text | Print | Product List | Glossary On
Versions: 1 2 3 4 5 6 7 8 9 10 11 12 13 14 15 16 17 18 19
000
FTUS43 KGRB 272000 AAA
TAFGRB
TAF AMD
KGRB 272038Z 2721/2818 VRB03KT P6SM BKN035 BKN250
     FM280000 09004KT P6SM VCSH SCT040 BKN150
     FM280300 VRB03KT P6SM VCSH SCT030 OVC050
      TEMPO 2803/2807 5SM -SHRA BR
     FM280700 27008KT P6SM -RA BKN015 OVC030
     FM281000 26010KT P6SM SCT015 BKN040
     FM281400 25015G23KT P6SM SCT040 BKN100=

USA.gov is the U.S. government's official web portal to all federal, state and local government web resources and services.